Simultaneous Nadir Overpasses (SNOs) Predictions

Prediction of SNOs between GOES-17 and LANDSAT-8 Satellite Orbit:

Table of predicted SNOs for the next 14.0 days since TLE Epoch: 12/31/2023
Index Date Time (GOES-17) GOES-17 Lat,Lon LANDSAT-8 Lat,Lon Distance(km) Time Diff (sec)
1 12/31/2023 05:01:05 -0.02,-104.67 0.42,-102.55 240.01 80
2 12/31/2023 17:22:20 0.02,-104.67 0.68,-107.71 345.17 80
3 01/02/2024 17:10:07 0.03,-104.68 0.04,-104.75 8.02 80
4 01/04/2024 17:00:34 0.02,-104.68 -0.61,-101.79 329.11 80
5 01/05/2024 05:21:57 -0.02,-104.67 -0.53,-106.97 261.60 80
6 01/07/2024 05:07:04 0.01,-104.67 0.15,-104.01 74.57 80
7 01/09/2024 04:54:50 0.01,-104.66 0.78,-101.05 410.97 80
8 01/09/2024 17:16:05 -0.01,-104.66 0.31,-106.20 175.03 80
9 01/11/2024 17:06:30 -0.01,-104.65 -0.28,-103.22 161.40 80
10 01/12/2024 05:27:54 0.01,-104.65 -0.78,-108.42 428.77 80
11 01/13/2024 16:54:16 0.01,-104.64 -0.95,-100.26 498.12 80
